Location: Az?znagar
(16.8373°N, 80.5091°E)
Time: 23:28:25
(UTC+00:00)

Nadezhda 4 Rocket - Pass Details

Date: 05 July 2022
Orbit: 949 x 992 km, 82.9° (Epoch: 09 August)

Event Time Altitude Azimuth Distance (km) Brightness Sun altitude
Rises 23:44:35 0° 188° (S) 3,663 6.7 -6.3°
Reaches altitude 10° 23:47:07 10° 190° (S) 2,711 6.0 -5.8°
Maximum altitude 23:53:18 73° 274° (W) 1,008 4.0 -4.4°
Drops below altitude 10° 23:59:26 10° 359° (N) 2,687 6.7 -3.1°
Sets 00:01:56 0° 1° (N) 3,628 7.4 -2.5°
